Location: Assche-ter-Heiden
(50.9174°N, 4.1574°E)
Time: 19:25:06
(UTC+00:00)

USA 32 - Pass Details

Date: 20 January 2020
Orbit: 777 x 783 km, 85.0° (Epoch: 29 January)

Event Time Altitude Azimuth Distance (km) Brightness Sun altitude
Rises 05:20:31 0° 353° (N) 3,275 7.1 -20.8°
Reaches altitude 10° 05:22:52 10° 354° (N) 2,343 6.4 -20.4°
Maximum altitude 05:28:09 85° 84° (E) 789 4.0 -19.6°
Drops below altitude 10° 05:33:23 10° 173° (S) 2,329 6.7 -18.8°
Sets 05:35:44 0° 174° (S) 3,253 7.5 -18.4°
